Date String (YYYY-MM-DD hh:mm:ss) UTC,Instrument flags,absolute air pressure of the measurement (hPa),sample flow rate (lpm),inlet stack bypass flow (lpm),air temperature of the measurement (°C),ambient temperature measured by the external sensor (°C),aerosol sample conditioner tube jacket temperature (°C),OPC LED temperature (°C),internal box temperature (°C),relative humidity of the measurement (%),span deviation,mass concentration of particles derived from Lorenz-Mie calculation of OPC scattering (μg/m³),mass concentration of particles derived from Lorenz-Mie calculation of OPC scattering (μg/m³),mass concentration of particles derived from Lorenz-Mie calculation of OPC scattering (μg/m³)
DateTimeUTC,F1_M11,P_M11,Q1_M11,Q2_M11,T1_M11,T2_M11,T3_M11,T4_M11,T5_M11,U1_M11,ZSPAN_M11,X0_M11,X2_M11,X1_M11
2024-04-09 16:00:00,SystemResetWarning,0828.6,5.00,000.00,021.1,020.7,000.0,029.4,022.9,017.4,0000.0,0008.82,0002.46,0001.65
2024-04-09 16:01:00,SystemResetWarning,0828.6,5.00,000.00,021.1,020.7,000.0,029.4,022.9,017.9,0000.0,0008.62,0002.46,0001.65
2024-04-09 16:02:00,SystemResetWarning,0828.6,5.00,000.00,021.1,020.7,000.0,029.4,022.9,018.0,0000.0,0007.63,0002.47,0001.68
2024-04-09 16:03:00,SystemResetWarning,0828.6,4.99,000.00,021.1,020.7,000.0,029.4,022.9,017.5,0000.0,0007.81,0002.49,0001.71
2024-04-09 16:04:00,SystemResetWarning,0828.6,5.00,000.00,021.1,020.7,000.0,029.4,022.9,017.5,0000.0,0008.46,0002.53,0001.76
2024-04-09 16:05:00,SystemResetWarning,0828.6,5.00,000.00,021.1,020.7,000.0,029.4,022.9,017.4,0000.0,0008.50,0002.59,0001.80
2024-04-09 16:06:00,SystemResetWarning,0828.6,5.01,000.00,021.2,020.7,000.0,029.4,022.9,017.4,0000.0,0009.01,0002.67,0001.84
2024-04-09 16:07:00,SystemResetWarning,0828.6,5.00,000.00,021.2,020.7,000.0,029.4,022.9,017.4,0000.0,0008.69,0002.71,0001.87
2024-04-09 16:08:00,SystemResetWarning,0828.6,5.00,000.00,021.2,020.7,000.0,029.5,022.9,017.4,0000.0,0008.31,0002.72,0001.92
2024-04-09 16:09:00,SystemResetWarning,0828.6,5.00,000.00,021.2,020.7,000.0,029.5,022.9,017.4,0000.0,0009.62,0002.73,0001.97
2024-04-09 16:10:00,SystemResetWarning,0828.6,5.00,000.00,021.2,020.7,000.0,029.5,022.9,017.3,0000.0,0010.36,0002.80,0002.02
2024-04-09 16:11:00,SystemResetWarning,0828.6,5.00,000.00,021.2,020.7,000.0,029.5,022.9,017.6,0000.0,0010.61,0002.86,0002.08
2024-04-09 16:12:00,SystemResetWarning,0828.6,5.00,000.00,021.2,020.7,000.0,029.5,023.0,017.3,0000.0,0010.71,0002.93,0002.14
2024-04-09 16:13:00,SystemResetWarning,0828.6,5.00,000.00,021.2,020.7,000.0,029.5,023.0,017.3,0000.0,0010.98,0002.99,0002.17
2024-04-09 16:14:00,SystemResetWarning,0828.6,5.00,000.00,021.2,020.7,000.0,029.5,023.0,017.2,0000.0,0011.18,0003.04,0002.19
2024-04-09 16:15:00,SystemResetWarning,0828.6,5.00,000.00,021.2,020.7,000.0,029.5,023.0,017.3,0000.0,0011.27,0003.07,0002.21
2024-04-09 16:16:00,SystemResetWarning,0828.6,5.01,000.00,021.2,020.8,000.0,029.5,023.0,017.4,0000.0,0011.65,0003.08,0002.23
2024-04-09 16:17:00,SystemResetWarning,0828.6,5.00,000.00,021.3,020.8,000.0,029.5,023.0,017.2,0000.0,0011.59,0003.10,0002.25
2024-04-09 16:18:00,SystemResetWarning,0828.6,5.00,000.00,021.3,020.8,000.0,029.5,023.0,017.1,0000.0,0011.44,0003.12,0002.30
2024-04-09 16:19:00,SystemResetWarning,0828.6,5.00,000.00,021.3,020.8,000.0,029.5,023.0,017.2,0000.0,0011.32,0003.14,0002.32
2024-04-09 16:20:00,SystemResetWarning,0828.6,4.99,000.00,021.3,020.8,000.0,029.6,023.0,017.3,0000.0,0010.33,0003.17,0002.34
2024-04-09 16:21:00,SystemResetWarning,0828.6,5.00,000.00,021.3,020.8,000.0,029.6,023.1,017.3,0000.0,0009.69,0003.21,0002.36
2024-04-09 16:22:00,SystemResetWarning,0828.6,5.00,000.00,021.3,020.9,000.0,029.6,023.1,017.4,0000.0,0009.75,0003.25,0002.37
2024-04-09 16:23:00,SystemResetWarning,0828.6,5.00,000.00,021.3,020.9,000.0,029.6,023.1,017.4,0000.0,0009.81,0003.28,0002.37
2024-04-09 16:24:00,SystemResetWarning,0828.6,5.01,000.00,021.3,020.9,000.0,029.6,023.1,017.3,0000.0,0009.73,0003.28,0002.37
2024-04-09 16:25:00,SystemResetWarning,0828.6,5.00,000.00,021.3,020.9,000.0,029.6,023.1,017.2,0000.0,0010.10,0003.27,0002.39
2024-04-09 16:26:00,SystemResetWarning,0828.6,5.01,000.00,021.4,020.9,000.0,029.6,023.1,017.2,0000.0,0009.70,0003.25,0002.39
2024-04-09 16:27:00,SystemResetWarning,0828.6,5.00,000.00,021.4,020.9,000.0,029.6,023.1,017.6,0000.0,0009.45,0003.22,0002.39
2024-04-09 16:28:00,SystemResetWarning,0828.6,5.00,000.00,021.4,020.9,000.0,029.6,023.1,017.3,0000.0,0009.80,0003.19,0002.38
2024-04-09 16:29:00,SystemResetWarning,0828.6,5.00,000.00,021.4,020.9,000.0,029.7,023.1,017.1,0000.0,0009.37,0003.17,0002.38
2024-04-09 16:30:00,SystemResetWarning,0828.6,5.00,000.00,021.4,020.9,000.0,029.7,023.1,017.1,0000.0,0009.20,0003.19,0002.40
2024-04-09 16:31:00,SystemResetWarning,0828.6,4.99,000.00,021.4,020.9,000.0,029.7,023.1,017.1,0000.0,0008.94,0003.18,0002.42
2024-04-09 16:32:00,SystemResetWarning,0828.6,5.01,000.00,021.4,020.9,000.0,029.7,023.1,017.0,0000.0,0008.81,0003.16,0002.42
2024-04-09 16:33:00,SystemResetWarning,0828.6,5.00,000.00,021.4,020.9,000.0,029.7,023.1,017.1,0000.0,0009.04,0003.16,0002.42
2024-04-09 16:34:00,SystemResetWarning,0828.6,5.00,000.00,021.4,020.9,000.0,029.7,023.2,017.2,0000.0,0009.11,0003.14,0002.43
2024-04-09 16:35:00,SystemResetWarning,0828.6,4.99,000.00,021.4,020.9,000.0,029.7,023.1,017.4,0000.0,0009.13,0003.16,0002.46
2024-04-09 16:36:00,SystemResetWarning,0828.5,5.00,000.00,021.4,020.9,000.0,029.7,023.2,017.5,0000.0,0008.32,0003.17,0002.47
2024-04-09 16:37:00,SystemResetWarning,0828.6,5.01,000.00,021.4,021.0,000.0,029.7,023.2,017.5,0000.0,0008.01,0003.18,0002.49
2024-04-09 16:38:00,SystemResetWarning,0828.6,5.01,000.00,021.5,021.0,000.0,029.7,023.2,017.5,0000.0,0007.91,0003.22,0002.52
2024-04-09 16:39:00,SystemResetWarning,0828.6,5.00,000.00,021.5,021.0,000.0,029.8,023.2,017.6,0000.0,0008.29,0003.28,0002.55
2024-04-09 16:40:00,SystemResetWarning,0828.6,4.99,000.00,021.5,021.0,000.0,029.8,023.2,017.7,0000.0,0008.61,0003.30,0002.55
2024-04-09 16:41:00,SystemResetWarning,0828.6,5.00,000.00,021.5,021.0,000.0,029.8,023.3,017.7,0000.0,0008.58,0003.30,0002.55
2024-04-09 16:42:00,SystemResetWarning,0828.6,5.00,000.00,021.5,021.0,000.0,029.8,023.3,017.5,0000.0,0008.54,0003.30,0002.55
2024-04-09 16:43:00,SystemResetWarning,0828.6,4.99,000.00,021.5,021.0,000.0,029.8,023.3,017.6,0000.0,0008.60,0003.30,0002.58
2024-04-09 16:44:00,SystemResetWarning,0828.6,4.99,000.00,021.5,021.0,000.0,029.8,023.3,017.6,0000.0,0009.02,0003.29,0002.60
2024-04-09 16:45:00,SystemResetWarning,0828.6,5.00,000.00,021.5,021.0,000.0,029.8,023.3,017.8,0000.0,0009.76,0003.31,0002.63
2024-04-09 16:46:00,SystemResetWarning,0828.7,5.00,000.00,021.5,021.0,000.0,029.8,023.3,017.4,0000.0,0009.67,0003.30,0002.65
2024-04-09 16:47:00,SystemResetWarning,0828.6,5.01,000.00,021.5,021.0,000.0,029.8,023.3,017.4,0000.0,0010.08,0003.32,0002.68
2024-04-09 16:48:00,SystemResetWarning,0828.7,5.01,000.00,021.6,021.0,000.0,029.8,023.3,017.5,0000.0,0010.59,0003.37,0002.70
2024-04-09 16:49:00,SystemResetWarning,0828.7,5.00,000.00,021.6,021.0,000.0,029.8,023.3,017.5,0000.0,0010.60,0003.39,0002.71
2024-04-09 16:50:00,SystemResetWarning,0828.7,5.00,000.00,021.6,021.0,000.0,029.9,023.3,017.4,0000.0,0010.29,0003.37,0002.73
2024-04-09 16:51:00,SystemResetWarning,0828.7,4.99,000.00,021.6,021.0,000.0,029.9,023.3,017.5,0000.0,0010.57,0003.37,0002.76
2024-04-09 16:52:00,SystemResetWarning,0828.8,4.99,000.00,021.6,021.0,000.0,029.9,023.3,017.5,0000.0,0011.05,0003.38,0002.77
2024-04-09 16:53:00,SystemResetWarning,0828.8,5.00,000.00,021.6,021.0,000.0,029.9,023.3,017.5,0000.0,0011.24,0003.42,0002.79
2024-04-09 16:54:00,SystemResetWarning,0828.7,5.00,000.00,021.6,021.0,000.0,029.9,023.3,017.3,0000.0,0011.33,0003.45,0002.80
2024-04-09 16:55:00,SystemResetWarning,0828.8,5.00,000.00,021.6,021.0,000.0,029.9,023.3,018.0,0000.0,0010.74,0003.43,0002.80
2024-04-09 16:56:00,SystemResetWarning,0828.8,5.01,000.00,021.6,021.0,000.0,029.9,023.3,017.6,0000.0,0010.61,0003.40,0002.79
2024-04-09 16:57:00,SystemResetWarning,0828.8,5.00,000.00,021.6,021.0,000.0,029.9,023.3,017.3,0000.0,0010.59,0003.40,0002.79
2024-04-09 16:58:00,SystemResetWarning,0828.8,5.00,000.00,021.6,021.1,000.0,029.9,023.4,017.2,0000.0,0010.26,0003.41,0002.78
2024-04-09 16:59:00,SystemResetWarning,0828.9,5.00,000.00,021.6,021.1,000.0,029.9,023.4,017.6,0000.0,0009.53,0003.38,0002.78
